Back to catalog

NUSAT-51

YVONNE BRILL

AliveScienceSSO
NORAD 66740·PAYLOAD·🇦🇷 Argentina

Launched Nov 28, 2025 from Vandenberg Space Force Base

Loading…

Next Passes (next 24 hours)

TLE

FreshSource: Space-Track

Epoch: Sep 14, 2026, 10:47 UTC

1 66740U 25276CC  26257.44954867  .00004526  00000-0  20626-3 0  9990
2 66740  97.4141 329.7283 0004275  59.6436 300.5223 15.21153440 43992

Track NUSAT-51 in real time with AllMySat

Download on the App Store